Truth Or Consequences, NM

11:01 PM MDT on July 27, 2017 (GMT -0600)
Truth Or Consequences Municipal

Weather History for KTCS - July, 2013

Change the Weather History Date:

Monday, July 1, 2013

  Actual Average Record
Temperature  
Mean Temperature 77 °F -  
Max Temperature 89 °F 94 °F 105 °F (1999)
Min Temperature 65 °F 66 °F 62 °F (2003)
Cooling Degree Days 12    
Month to date cooling degree days 12  
Year to date cooling degree days 792  
Since 1 June cooling degree days 544  
Growing Degree Days 28 (Base 50)    
Moisture  
Dew Point 57 °F    
Average Humidity 57    
Maximum Humidity 87    
Minimum Humidity 26    
Precipitation  
Precipitation 0.25 in - 0.25 in (2013)
Month to date precipitation 0.25  
Year to date precipitation 0.60  
Sea Level Pressure  
Sea Level Pressure 29.98 in    
Wind  
Wind Speed 7 mph (ENE)    
Max Wind Speed 38 mph    
Max Gust Speed 47 mph    
Visibility 9 miles    
Events Rain , Thunderstorm    
T = Trace of Precipitation, MM = Missing Value Source: NWS Daily Summary

Daily Weather History Graph

Daily Weather History Graph

Search for Another Location

Airport or City:

Trip Planner

Search our weather history database for the weather conditions in past years. The results will help you decide how hot, cold, wet, or windy it might be!

Date:

Astronomy

Jul. 01, 2013 Rise Set
Actual Time 6:03 AM MDT 8:22 PM MDT
Civil Twilight 5:34 AM MDT 8:51 PM MDT
Nautical Twilight 4:59 AM MDT 9:26 PM MDT
Astronomical Twilight 4:21 AM MDT 10:04 PM MDT
Moon 1:23 AM MDT (7/1) 2:50 PM MDT (7/1)
Length of Visible Light 15h 16m
Length of Day
14h 18m
Waning Crescent, 35% of the Moon is Illuminated
Jul 1
Waning Crescent
Jul 8
New
Jul 15
First Quarter
Jul 22
Full
Jul 29
Last Quarter

Hourly Weather History & Observations

Time (MDT) Temp. Heat Index Dew Point Humidity Pressure Visibility Wind Dir Wind Speed Gust Speed Precip Events Conditions
12:53 AM 66.9 °F - 60.1 °F 79% 29.95 in 10.0 mi North 4.6 mph - N/A   Mostly Cloudy
1:53 AM 66.9 °F - 61.0 °F 81% 29.95 in 10.0 mi NE 5.8 mph - 0.00 in   Mostly Cloudy
2:53 AM 66.0 °F - 61.0 °F 84% 29.94 in 10.0 mi Calm Calm - 0.00 in   Clear
3:53 AM 64.9 °F - 60.1 °F 84% 29.94 in 10.0 mi North 3.5 mph - N/A   Clear
4:53 AM 66.0 °F - 59.0 °F 78% 29.93 in 10.0 mi NNE 10.4 mph - N/A   Clear
5:53 AM 66.0 °F - 59.0 °F 78% 29.95 in 10.0 mi North 11.5 mph - N/A   Mostly Cloudy
6:53 AM 66.0 °F - 57.9 °F 75% 29.96 in 10.0 mi NNE 9.2 mph - N/A   Scattered Clouds
7:53 AM 69.1 °F - 59.0 °F 70% 29.98 in 10.0 mi NNE 11.5 mph - N/A   Clear
8:53 AM 71.1 °F - 57.9 °F 63% 30.00 in 10.0 mi NNE 12.7 mph - N/A   Clear
9:53 AM 73.9 °F - 57.0 °F 55% 30.01 in 10.0 mi NNE 11.5 mph - N/A   Clear
10:53 AM 75.9 °F - 55.9 °F 50% 30.02 in 10.0 mi NNE 9.2 mph - N/A   Clear
11:53 AM 78.1 °F - 55.0 °F 45% 30.00 in 10.0 mi East 5.8 mph - N/A   Clear
12:53 PM 80.1 °F 80.1 °F 55.0 °F 42% 29.97 in 10.0 mi Calm Calm - N/A   Partly Cloudy
1:53 PM 82.9 °F 81.8 °F 53.1 °F 36% 29.94 in 10.0 mi Variable 3.5 mph - N/A   Clear
2:53 PM 84.0 °F - 50.0 °F 31% 29.91 in 10.0 mi Variable 4.6 mph - N/A   Partly Cloudy
3:53 PM 86.0 °F - 48.9 °F 28% 29.87 in 10.0 mi ESE 9.2 mph - N/A   Partly Cloudy
4:53 PM 87.1 °F - 48.9 °F 27% 29.84 in 10.0 mi East 4.6 mph - N/A   Clear
5:53 PM 88.0 °F - 48.0 °F 25% 29.82 in 10.0 mi East 11.5 mph - N/A   Clear
6:53 PM 87.1 °F - 48.9 °F 27% 29.84 in 10.0 mi SSE 6.9 mph - N/A   Clear
7:50 PM 82.4 °F 81.4 °F 53.6 °F 37% 30.14 in 5.0 mi NNE 34.5 mph 47.2 mph N/A Thunderstorm Haze
7:53 PM 73.0 °F - 57.9 °F 59% 29.94 in 1.2 mi NE 27.6 mph 47.2 mph 0.02 in Rain , Thunderstorm Heavy Rain
8:01 PM 69.8 °F - 60.8 °F 73% 30.15 in 0.8 mi SE 32.2 mph 47.2 mph 0.21 in Rain , Thunderstorm Heavy Thunderstorms and Rain
8:05 PM 66.2 °F - 60.8 °F 83% 30.15 in 1.8 mi SE 25.3 mph 47.2 mph 0.23 in Rain , Thunderstorm Thunderstorms and Rain
8:09 PM 66.2 °F - 60.8 °F 83% 30.16 in 3.0 mi SSE 24.2 mph 44.9 mph 0.23 in Rain , Thunderstorm Light Thunderstorms and Rain
8:41 PM 68.0 °F - 60.8 °F 78% 30.16 in 10.0 mi South 8.1 mph - 0.23 in   Clear
8:53 PM 68.0 °F - 62.1 °F 81% 29.96 in 10.0 mi SSE 9.2 mph - 0.23 in   Clear
9:53 PM 66.9 °F - 57.9 °F 73% 30.02 in 10.0 mi West 3.5 mph - N/A   Clear
10:53 PM 68.0 °F - 59.0 °F 73% 30.04 in 10.0 mi South 6.9 mph - N/A   Clear
11:53 PM 68.0 °F - 59.0 °F 73% 30.04 in 10.0 mi Calm Calm - N/A   Clear